Location: Almena City Lake
(39.8850°N, 99.6804°W)
Time: 07:36:06
(UTC+00:00)

Cosmos 1725 Rocket - Pass Details

Date: 18 February 2020
Orbit: 963 x 989 km, 82.9° (Epoch: 30 March)

Event Time Altitude Azimuth Distance (km) Brightness Sun altitude
Rises 01:47:52 0° 195° (SSW) 3,634 7.2 -18.1°
Reaches altitude 10° 01:50:23 10° 199° (SSW) 2,691 6.5 -18.6°
Maximum altitude 01:56:29 62° 279° (W) 1,075 4.5 -19.8°
Drops below altitude 10° 02:02:37 10° 0° (N) 2,711 6.3 -20.9°
Sets 02:05:10 0° 4° (N) 3,664 7.0 -21.4°
